{"data":{"norad_id":62711,"epoch":"2026-09-19T11:19:44.337216Z","epoch_age_seconds":103244,"freshness":"FRESH","line1":"1 62711U 25009DG  26262.47204094  .00005153  00000+0  36660-3 0  9998","line2":"2 62711  97.7182 345.0753 0004033 161.9993 198.1377 15.05089401 91805","mean_motion":15.05089401,"eccentricity":0.0004033,"inclination_deg":97.7182,"raan_deg":345.0753,"arg_perigee_deg":161.9993,"mean_anomaly_deg":198.1377,"bstar":0.0003666,"rev_number":9180,"period_min":95.67537975108,"perigee_km":548.43665539011,"apogee_km":554.02588383638,"semimajor_km":6929.3682696132,"source":"CELESTRAK","updated_at":"2026-09-20T09:00:34.873412Z"}}